Weather History for Boothville, LA

Change the Weather History Date:

Wednesday, February 27, 2013

  Actual Average Record
Temperature  
Mean Temperature 55 °F -  
Max Temperature 64 °F - - ()
Min Temperature 46 °F - - ()
Degree Days  
Heating Degree Days 10    
Growing Degree Days 5 (Base 50)    
Moisture  
Dew Point 49 °F    
Average Humidity 75    
Maximum Humidity 97    
Minimum Humidity 45    
Precipitation  
Precipitation 0.00 in - - ()
Sea Level Pressure  
Sea Level Pressure 30.00 in    
Wind  
Wind Speed 5 mph (WSW)    
Max Wind Speed 13 mph    
Max Gust Speed -    
Visibility 10 miles    
Events      
T = Trace of Precipitation, MM = Missing Value Source: NWS Daily Summary

Daily Weather History Graph

Daily Weather History Graph

Search for Another Location

Airport:

Trip Planner

Search our weather history database for the weather conditions in past years. The results will help you decide how hot, cold, wet, or windy it might be!

Date:

Astronomy

Feb. 27, 2013 Rise Set
Actual Time 6:24 AM CST 5:56 PM CST
Civil Twilight 6:01 AM CST 6:19 PM CST
Nautical Twilight 5:33 AM CST 6:47 PM CST
Astronomical Twilight 5:05 AM CST 7:15 PM CST
Moon 8:01 PM CST 7:13 AM CST
Length of Visible Light 12h 18m
Length of Day
11h 31m
Waning Gibbous, 96% of the Moon is Illuminated
Feb 27
Waning Gibbous
Mar 4
Last Quarter
Mar 11
New
Mar 19
First Quarter
Mar 27
Full

Hourly Weather History & Observations

Time (CST) Temp. Dew Point Humidity Pressure Visibility Wind Dir Wind Speed Gust Speed Precip Events Conditions
12:51 AM 51.1 °F 46.9 °F 86% 29.96 in 10.0 mi West 5.8 mph - N/A   Clear
1:51 AM 48.9 °F 46.0 °F 90% 29.95 in 10.0 mi West 3.5 mph - N/A   Clear
2:51 AM 50.0 °F 46.9 °F 89% 29.95 in 10.0 mi Calm Calm - N/A   Clear
3:51 AM 51.1 °F 48.0 °F 89% 29.95 in 10.0 mi WNW 3.5 mph - N/A   Clear
4:51 AM 48.0 °F 46.9 °F 96% 29.97 in 10.0 mi Calm Calm - N/A   Clear
5:51 AM 46.9 °F 46.0 °F 97% 29.98 in 9.0 mi Calm Calm - N/A   Clear
6:51 AM 46.9 °F 46.0 °F 97% 29.99 in 4.0 mi NNW 4.6 mph - N/A   Clear
7:51 AM 55.0 °F 51.1 °F 86% 30.01 in 8.0 mi Calm Calm - N/A   Clear
8:51 AM 59.0 °F 51.1 °F 75% 30.05 in 8.0 mi North 3.5 mph - N/A   Clear
9:51 AM 59.0 °F 51.1 °F 75% 30.06 in 10.0 mi Calm Calm - N/A   Clear
10:51 AM 62.1 °F 48.9 °F 62% 30.06 in 10.0 mi SSE 3.5 mph - N/A   Clear
11:51 AM 63.0 °F 50.0 °F 63% 30.04 in 10.0 mi SSE 8.1 mph - N/A   Clear
12:51 PM 63.0 °F 43.0 °F 48% 30.02 in 10.0 mi SSW 8.1 mph - N/A   Clear
1:51 PM 64.9 °F 43.0 °F 45% 30.01 in 10.0 mi WSW 11.5 mph - N/A   Clear
2:51 PM 64.0 °F 48.9 °F 58% 30.00 in 10.0 mi SW 8.1 mph - N/A   Clear
3:51 PM 64.9 °F 46.9 °F 52% 29.99 in 10.0 mi SW 11.5 mph - N/A   Clear
4:51 PM 63.0 °F 46.0 °F 54% 29.99 in 10.0 mi SW 10.4 mph - N/A   Clear
5:51 PM 61.0 °F 48.9 °F 64% 30.00 in 10.0 mi WSW 12.7 mph - N/A   Clear
6:51 PM 60.1 °F 51.1 °F 72% 30.00 in 10.0 mi WSW 10.4 mph - N/A   Clear
7:51 PM 59.0 °F 52.0 °F 78% 30.01 in 10.0 mi West 9.2 mph - N/A   Clear
8:51 PM 60.1 °F 53.1 °F 78% 30.01 in 10.0 mi WSW 9.2 mph - N/A   Clear
9:51 PM 59.0 °F 53.1 °F 81% 30.03 in 10.0 mi West 9.2 mph - N/A   Clear
10:51 PM 59.0 °F 54.0 °F 83% 30.02 in 10.0 mi West 9.2 mph - N/A   Clear
11:51 PM 57.0 °F 54.0 °F 89% 30.02 in 10.0 mi West 5.8 mph - N/A   Clear